Time,TemperatureF,DewpointF,PressureIn,WindDirection,WindDirectionDegrees,WindSpeedMPH,WindSpeedGustMPH,Humidity,HourlyPrecipIn,Conditions,Clouds,dailyrainin,SoftwareType,DateUTC
2013-08-13 00:01:00,66.4,64.9,29.85,West,270,0.0,0.0,95,0.00,,---,0.00,VWS V14.00,2013-08-13 04:01:00,
2013-08-13 00:02:00,66.4,64.9,29.85,West,270,0.0,0.0,95,0.00,,---,0.00,VWS V14.00,2013-08-13 04:02:00,
2013-08-13 00:07:00,66.4,64.6,29.85,West,270,0.0,0.0,94,0.00,,---,0.00,VWS V14.00,2013-08-13 04:07:00,
2013-08-13 00:12:00,66.4,64.9,29.85,West,270,0.0,0.9,95,0.00,,---,0.00,VWS V14.00,2013-08-13 04:12:00,
2013-08-13 00:17:00,66.2,64.7,29.88,West,270,0.0,0.0,95,0.00,,---,0.00,VWS V14.00,2013-08-13 04:17:00,
2013-08-13 00:23:00,66.2,64.7,29.88,West,270,0.0,0.0,95,0.00,,---,0.00,VWS V14.00,2013-08-13 04:23:00,
2013-08-13 00:28:00,66.0,64.6,29.88,West,270,0.0,0.0,95,0.00,,---,0.00,VWS V14.00,2013-08-13 04:28:00,
2013-08-13 00:33:00,65.8,64.4,29.88,West,270,0.0,0.0,95,0.00,,---,0.00,VWS V14.00,2013-08-13 04:33:00,
2013-08-13 00:38:00,65.7,63.9,29.88,West,270,0.0,0.0,94,0.00,,---,0.00,VWS V14.00,2013-08-13 04:38:00,
2013-08-13 00:43:00,65.7,63.9,29.88,West,270,0.0,0.0,94,0.00,,---,0.00,VWS V14.00,2013-08-13 04:43:00,
2013-08-13 00:48:00,65.5,63.7,29.88,West,270,2.7,2.7,94,0.00,,---,0.00,VWS V14.00,2013-08-13 04:48:00,
2013-08-13 00:53:00,65.3,63.5,29.88,West,270,0.0,0.0,94,0.00,,---,0.00,VWS V14.00,2013-08-13 04:53:00,
2013-08-13 00:58:00,65.1,63.3,29.88,West,270,0.0,0.0,94,0.00,,---,0.00,VWS V14.00,2013-08-13 04:58:00,
2013-08-13 01:03:00,64.9,63.2,29.88,West,270,0.0,0.0,94,0.00,,---,0.00,VWS V14.00,2013-08-13 05:03:00,
2013-08-13 01:08:00,64.8,63.0,29.88,West,270,0.0,0.0,94,0.00,,---,0.00,VWS V14.00,2013-08-13 05:08:00,
2013-08-13 01:13:00,64.6,62.5,29.88,West,270,0.0,0.0,93,0.00,,---,0.00,VWS V14.00,2013-08-13 05:13:00,
2013-08-13 01:18:00,64.4,62.3,29.88,West,270,0.0,0.0,93,0.00,,---,0.00,VWS V14.00,2013-08-13 05:18:00,
2013-08-13 01:24:00,64.2,62.5,29.88,West,270,0.0,0.0,94,0.00,,---,0.00,VWS V14.00,2013-08-13 05:24:00,
2013-08-13 01:29:00,64.0,62.3,29.88,West,270,0.0,0.0,94,0.00,,---,0.00,VWS V14.00,2013-08-13 05:29:00,
2013-08-13 01:34:00,63.9,62.1,29.88,West,270,0.0,0.0,94,0.00,,---,0.00,VWS V14.00,2013-08-13 05:34:00,
2013-08-13 01:39:00,63.7,61.9,29.88,West,270,0.0,0.0,94,0.00,,---,0.00,VWS V14.00,2013-08-13 05:39:00,
2013-08-13 01:44:00,63.7,61.9,29.88,West,270,0.0,0.0,94,0.00,,---,0.00,VWS V14.00,2013-08-13 05:44:00,
2013-08-13 01:49:00,63.5,61.8,29.91,West,270,1.1,1.1,94,0.00,,---,0.00,VWS V14.00,2013-08-13 05:49:00,
2013-08-13 01:54:00,63.3,61.6,29.91,West,270,0.0,0.0,94,0.00,,---,0.00,VWS V14.00,2013-08-13 05:54:00,
2013-08-13 01:59:00,63.3,61.6,29.91,West,270,0.0,0.0,94,0.00,,---,0.00,VWS V14.00,2013-08-13 05:59:00,
2013-08-13 02:04:00,63.1,61.4,29.91,West,270,0.0,0.0,94,0.00,,---,0.00,VWS V14.00,2013-08-13 06:04:00,
2013-08-13 02:10:00,63.0,61.2,29.91,West,270,0.0,0.0,94,0.00,,---,0.00,VWS V14.00,2013-08-13 06:10:00,
2013-08-13 02:15:00,63.0,61.2,29.91,West,270,0.0,0.0,94,0.00,,---,0.00,VWS V14.00,2013-08-13 06:15:00,
2013-08-13 02:20:00,63.0,61.2,29.91,West,270,0.0,0.0,94,0.00,,---,0.00,VWS V14.00,2013-08-13 06:20:00,
2013-08-13 02:25:00,62.8,61.0,29.91,West,270,0.0,0.0,94,0.00,,---,0.00,VWS V14.00,2013-08-13 06:25:00,
2013-08-13 02:30:00,62.6,60.5,29.91,West,270,0.0,0.0,93,0.00,,---,0.00,VWS V14.00,2013-08-13 06:30:00,
2013-08-13 02:35:00,62.4,60.7,29.91,West,270,0.0,0.0,94,0.00,,---,0.00,VWS V14.00,2013-08-13 06:35:00,
2013-08-13 02:40:00,62.4,60.7,29.91,West,270,0.0,0.0,94,0.00,,---,0.00,VWS V14.00,2013-08-13 06:40:00,
2013-08-13 02:45:00,62.2,60.5,29.91,West,270,0.0,0.0,94,0.00,,---,0.00,VWS V14.00,2013-08-13 06:45:00,
2013-08-13 02:50:00,62.2,60.5,29.88,West,270,0.0,0.0,94,0.00,,---,0.00,VWS V14.00,2013-08-13 06:50:00,
2013-08-13 02:55:00,62.1,60.3,29.88,West,270,0.0,0.0,94,0.00,,---,0.00,VWS V14.00,2013-08-13 06:55:00,
2013-08-13 03:00:00,62.1,60.3,29.88,West,270,0.0,0.0,94,0.00,,---,0.00,VWS V14.00,2013-08-13 07:00:00,
2013-08-13 03:05:00,61.9,60.1,29.91,West,270,0.0,0.0,94,0.00,,---,0.00,VWS V14.00,2013-08-13 07:05:00,
2013-08-13 03:10:00,61.7,59.7,29.91,West,270,0.0,0.0,93,0.00,,---,0.00,VWS V14.00,2013-08-13 07:10:00,
2013-08-13 03:15:00,61.7,59.7,29.91,West,270,0.0,0.0,93,0.00,,---,0.00,VWS V14.00,2013-08-13 07:15:00,
2013-08-13 03:20:00,61.5,59.5,29.91,West,270,0.0,0.0,93,0.00,,---,0.00,VWS V14.00,2013-08-13 07:20:00,
2013-08-13 03:25:00,61.5,59.8,29.91,West,270,0.0,0.0,94,0.00,,---,0.00,VWS V14.00,2013-08-13 07:25:00,
2013-08-13 03:30:00,61.3,59.6,29.94,West,270,0.0,0.0,94,0.00,,---,0.00,VWS V14.00,2013-08-13 07:30:00,
2013-08-13 03:35:00,61.3,59.3,29.94,West,270,0.0,0.0,93,0.00,,---,0.00,VWS V14.00,2013-08-13 07:35:00,
2013-08-13 03:41:00,61.2,59.1,29.94,West,270,0.0,0.0,93,0.00,,---,0.00,VWS V14.00,2013-08-13 07:41:00,
2013-08-13 03:46:00,61.0,59.0,29.94,West,270,0.0,0.0,93,0.00,,---,0.00,VWS V14.00,2013-08-13 07:46:00,
2013-08-13 03:51:00,60.8,58.8,29.94,West,270,0.0,0.0,93,0.00,,---,0.00,VWS V14.00,2013-08-13 07:51:00,
2013-08-13 03:56:00,60.6,58.9,29.94,West,270,0.0,0.0,94,0.00,,---,0.00,VWS V14.00,2013-08-13 07:56:00,
2013-08-13 04:01:00,60.6,58.6,29.94,West,270,0.0,0.0,93,0.00,,---,0.00,VWS V14.00,2013-08-13 08:01:00,
2013-08-13 04:06:00,60.4,58.4,29.94,West,270,0.0,0.0,93,0.00,,---,0.00,VWS V14.00,2013-08-13 08:06:00,
2013-08-13 04:11:00,60.3,58.5,29.94,West,270,0.0,0.0,94,0.00,,---,0.00,VWS V14.00,2013-08-13 08:11:00,
2013-08-13 04:16:00,60.1,58.0,29.94,West,270,0.0,0.0,93,0.00,,---,0.00,VWS V14.00,2013-08-13 08:16:00,
2013-08-13 04:21:00,59.9,57.9,29.94,West,270,0.0,0.0,93,0.00,,---,0.00,VWS V14.00,2013-08-13 08:21:00,
2013-08-13 04:26:00,59.7,57.7,29.94,West,270,0.0,0.0,93,0.00,,---,0.00,VWS V14.00,2013-08-13 08:26:00,
2013-08-13 04:31:00,59.7,57.7,29.94,West,270,0.0,0.0,93,0.00,,---,0.00,VWS V14.00,2013-08-13 08:31:00,
2013-08-13 04:36:00,59.5,57.5,29.94,West,270,0.0,0.0,93,0.00,,---,0.00,VWS V14.00,2013-08-13 08:36:00,
2013-08-13 04:41:00,59.4,57.3,29.94,West,270,0.0,0.0,93,0.00,,---,0.00,VWS V14.00,2013-08-13 08:41:00,
2013-08-13 04:46:00,59.4,57.3,29.94,West,270,0.0,0.0,93,0.00,,---,0.00,VWS V14.00,2013-08-13 08:46:00,
2013-08-13 04:51:00,59.2,57.2,29.94,West,270,0.0,0.0,93,0.00,,---,0.00,VWS V14.00,2013-08-13 08:51:00,
2013-08-13 04:56:00,59.2,57.2,29.94,West,270,0.0,0.9,93,0.00,,---,0.00,VWS V14.00,2013-08-13 08:56:00,
2013-08-13 05:01:00,59.0,57.0,29.94,West,270,0.0,0.0,93,0.00,,---,0.00,VWS V14.00,2013-08-13 09:01:00,
2013-08-13 05:06:00,58.8,56.8,29.94,West,270,0.0,0.0,93,0.00,,---,0.00,VWS V14.00,2013-08-13 09:06:00,
2013-08-13 05:11:00,58.8,56.8,29.94,West,270,0.0,2.7,93,0.00,,---,0.00,VWS V14.00,2013-08-13 09:11:00,
2013-08-13 05:16:00,58.5,56.5,29.94,West,270,0.0,0.0,93,0.00,,---,0.00,VWS V14.00,2013-08-13 09:16:00,
2013-08-13 05:21:00,58.5,56.5,29.94,West,270,0.0,0.0,93,0.00,,---,0.00,VWS V14.00,2013-08-13 09:21:00,
2013-08-13 05:26:00,58.3,56.3,29.94,WNW,292,0.0,0.0,93,0.00,,---,0.00,VWS V14.00,2013-08-13 09:26:00,
2013-08-13 05:31:00,58.3,56.6,29.94,WNW,292,0.0,0.0,94,0.00,,---,0.00,VWS V14.00,2013-08-13 09:31:00,
2013-08-13 05:36:00,58.1,56.4,29.94,WNW,292,0.0,0.0,94,0.00,,---,0.00,VWS V14.00,2013-08-13 09:36:00,
2013-08-13 05:41:00,57.9,56.2,29.94,WNW,292,0.0,0.0,94,0.00,,---,0.00,VWS V14.00,2013-08-13 09:41:00,
2013-08-13 05:46:00,57.9,56.2,29.97,WNW,292,0.0,0.0,94,0.00,,---,0.00,VWS V14.00,2013-08-13 09:46:00,
2013-08-13 05:51:00,57.9,56.2,29.97,West,270,0.0,0.0,94,0.00,,---,0.00,VWS V14.00,2013-08-13 09:51:00,
2013-08-13 05:56:00,57.9,56.2,29.97,West,270,0.0,0.0,94,0.00,,---,0.00,VWS V14.00,2013-08-13 09:56:00,
2013-08-13 06:01:00,57.6,55.8,29.97,WNW,292,0.9,0.9,94,0.00,,---,0.00,VWS V14.00,2013-08-13 10:01:00,
2013-08-13 06:06:00,57.6,55.8,29.97,WNW,292,0.0,0.0,94,0.00,,---,0.00,VWS V14.00,2013-08-13 10:06:00,
2013-08-13 06:11:00,57.4,55.4,29.97,NW,315,0.0,0.0,93,0.00,,---,0.00,VWS V14.00,2013-08-13 10:11:00,
2013-08-13 06:16:00,57.2,55.2,29.97,North,0,0.0,0.0,93,0.00,,---,0.00,VWS V14.00,2013-08-13 10:16:00,
2013-08-13 06:21:00,57.0,55.0,29.97,NW,315,0.0,0.0,93,0.00,,---,0.00,VWS V14.00,2013-08-13 10:21:00,
2013-08-13 06:26:00,56.8,54.8,29.97,NNW,338,0.0,0.0,93,0.00,,---,0.00,VWS V14.00,2013-08-13 10:26:00,
2013-08-13 06:31:00,56.7,54.4,30.00,North,0,1.6,1.6,92,0.00,,---,0.00,VWS V14.00,2013-08-13 10:31:00,
2013-08-13 06:36:00,56.5,54.2,30.00,NNW,338,0.0,0.0,92,0.00,,---,0.00,VWS V14.00,2013-08-13 10:36:00,
2013-08-13 06:41:00,56.3,54.0,30.00,North,0,0.0,0.0,92,0.00,,---,0.00,VWS V14.00,2013-08-13 10:41:00,
2013-08-13 06:46:00,56.1,53.8,30.00,NW,315,0.0,0.0,92,0.00,,---,0.00,VWS V14.00,2013-08-13 10:46:00,
2013-08-13 06:51:00,55.9,53.7,30.00,NNW,338,0.0,0.0,92,0.00,,---,0.00,VWS V14.00,2013-08-13 10:51:00,
2013-08-13 06:56:00,55.8,53.5,30.00,NNW,338,0.0,0.0,92,0.00,,---,0.00,VWS V14.00,2013-08-13 10:56:00,
2013-08-13 07:01:00,55.8,53.5,29.97,WSW,248,0.0,0.0,92,0.00,,---,0.00,VWS V14.00,2013-08-13 11:01:00,
2013-08-13 07:06:00,55.6,53.3,29.97,SW,225,0.0,0.0,92,0.00,,---,0.00,VWS V14.00,2013-08-13 11:06:00,
2013-08-13 07:11:00,55.4,53.1,29.97,NW,315,0.0,0.0,92,0.00,,---,0.00,VWS V14.00,2013-08-13 11:11:00,
2013-08-13 07:16:00,55.4,53.1,30.00,WNW,292,0.0,0.0,92,0.00,,---,0.00,VWS V14.00,2013-08-13 11:16:00,
2013-08-13 07:21:00,55.2,52.9,30.00,North,0,0.0,0.0,92,0.00,,---,0.00,VWS V14.00,2013-08-13 11:21:00,
2013-08-13 07:26:00,55.2,52.9,30.00,North,0,0.0,0.0,92,0.00,,---,0.00,VWS V14.00,2013-08-13 11:26:00,
2013-08-13 07:31:00,55.2,52.9,30.00,SSW,202,0.0,0.0,92,0.00,,---,0.00,VWS V14.00,2013-08-13 11:31:00,
2013-08-13 07:36:00,55.2,52.9,30.00,South,180,0.0,0.0,92,0.00,,---,0.00,VWS V14.00,2013-08-13 11:36:00,
2013-08-13 07:41:00,55.0,52.8,30.00,NNW,338,0.0,0.0,92,0.00,,---,0.00,VWS V14.00,2013-08-13 11:41:00,
2013-08-13 07:46:00,55.0,52.5,30.03,NNW,338,0.0,0.0,91,0.00,,---,0.00,VWS V14.00,2013-08-13 11:46:00,
2013-08-13 07:51:00,55.0,52.5,30.03,SSW,202,0.0,1.1,91,0.00,,---,0.00,VWS V14.00,2013-08-13 11:51:00,
2013-08-13 07:56:00,55.0,52.5,30.03,SW,225,0.0,0.0,91,0.00,,---,0.00,VWS V14.00,2013-08-13 11:56:00,
2013-08-13 08:01:00,55.0,52.5,30.03,North,0,0.0,2.0,91,0.00,,---,0.00,VWS V14.00,2013-08-13 12:01:00,
2013-08-13 08:06:00,55.2,52.6,30.03,West,270,0.0,0.0,91,0.00,,---,0.00,VWS V14.00,2013-08-13 12:06:00,
2013-08-13 08:11:00,55.2,52.6,30.03,West,270,0.0,0.0,91,0.00,,---,0.00,VWS V14.00,2013-08-13 12:11:00,
2013-08-13 08:16:00,55.4,52.5,30.06,West,270,0.0,0.0,90,0.00,,---,0.00,VWS V14.00,2013-08-13 12:16:00,
2013-08-13 08:21:00,55.4,52.2,30.06,North,0,1.1,1.1,89,0.00,,---,0.00,VWS V14.00,2013-08-13 12:21:00,
2013-08-13 08:26:00,55.6,52.4,30.06,SSW,202,0.0,0.0,89,0.00,,---,0.00,VWS V14.00,2013-08-13 12:26:00,
2013-08-13 08:31:00,55.6,52.1,30.06,West,270,4.3,4.3,88,0.00,,---,0.00,VWS V14.00,2013-08-13 12:31:00,
2013-08-13 08:36:00,55.9,52.4,30.06,NW,315,0.0,0.0,88,0.00,,---,0.00,VWS V14.00,2013-08-13 12:36:00,
2013-08-13 08:41:00,55.9,51.5,30.06,SSW,202,0.0,0.0,85,0.00,,---,0.00,VWS V14.00,2013-08-13 12:41:00,
2013-08-13 08:46:00,55.9,51.2,30.06,WSW,248,0.0,0.0,84,0.00,,---,0.00,VWS V14.00,2013-08-13 12:46:00,
2013-08-13 08:51:00,56.3,51.9,30.06,ESE,112,0.0,0.0,85,0.00,,---,0.00,VWS V14.00,2013-08-13 12:51:00,
2013-08-13 08:56:00,56.7,52.2,30.06,WNW,292,2.5,2.7,85,0.00,,---,0.00,VWS V14.00,2013-08-13 12:56:00,
2013-08-13 09:01:00,56.8,52.1,30.06,SSW,202,0.0,0.0,84,0.00,,---,0.00,VWS V14.00,2013-08-13 13:01:00,
2013-08-13 09:06:00,57.0,52.2,30.06,WSW,248,0.0,0.0,84,0.00,,---,0.00,VWS V14.00,2013-08-13 13:06:00,
2013-08-13 09:11:00,57.2,51.8,30.06,West,270,0.0,0.0,82,0.00,,---,0.00,VWS V14.00,2013-08-13 13:11:00,
2013-08-13 09:16:00,57.4,51.9,30.06,SW,225,2.2,2.7,82,0.00,,---,0.00,VWS V14.00,2013-08-13 13:16:00,
2013-08-13 09:21:00,57.6,51.5,30.06,NNE,22,0.0,0.0,80,0.00,,---,0.00,VWS V14.00,2013-08-13 13:21:00,
2013-08-13 09:26:00,57.2,50.1,30.06,NNW,338,2.0,4.3,77,0.00,,---,0.00,VWS V14.00,2013-08-13 13:26:00,
2013-08-13 09:31:00,57.4,50.6,30.06,WSW,248,1.6,1.6,78,0.00,,---,0.00,VWS V14.00,2013-08-13 13:31:00,
2013-08-13 09:36:00,57.7,50.9,30.06,SSW,202,0.0,1.1,78,0.00,,---,0.00,VWS V14.00,2013-08-13 13:36:00,
2013-08-13 09:41:00,57.9,50.4,30.06,North,0,1.1,2.0,76,0.00,,---,0.00,VWS V14.00,2013-08-13 13:41:00,
2013-08-13 09:46:00,57.9,49.0,30.06,WNW,292,1.6,4.7,72,0.00,,---,0.00,VWS V14.00,2013-08-13 13:46:00,
2013-08-13 09:51:00,58.1,49.1,30.06,WNW,292,3.1,3.1,72,0.00,,---,0.00,VWS V14.00,2013-08-13 13:51:00,
2013-08-13 09:56:00,58.5,49.8,30.06,WSW,248,2.2,2.9,73,0.00,,---,0.00,VWS V14.00,2013-08-13 13:56:00,
2013-08-13 10:01:00,58.6,50.0,30.03,NNW,338,2.5,2.5,73,0.00,,---,0.00,VWS V14.00,2013-08-13 14:01:00,
2013-08-13 10:06:00,58.6,48.5,30.03,SW,225,1.1,4.7,69,0.00,,---,0.00,VWS V14.00,2013-08-13 14:06:00,
2013-08-13 10:11:00,58.6,48.1,30.03,NNW,338,1.3,2.7,68,0.00,,---,0.00,VWS V14.00,2013-08-13 14:11:00,
2013-08-13 10:16:00,58.6,48.5,30.03,NW,315,2.2,2.2,69,0.00,,---,0.00,VWS V14.00,2013-08-13 14:16:00,
2013-08-13 10:21:00,59.0,48.9,30.03,WNW,292,3.8,3.8,69,0.00,,---,0.00,VWS V14.00,2013-08-13 14:21:00,
2013-08-13 10:26:00,59.0,48.1,30.03,SSW,202,3.4,3.4,67,0.00,,---,0.00,VWS V14.00,2013-08-13 14:26:00,
2013-08-13 10:31:00,59.2,48.2,30.06,NW,315,1.1,1.1,67,0.00,,---,0.00,VWS V14.00,2013-08-13 14:31:00,
2013-08-13 10:36:00,59.5,48.2,30.06,WSW,248,0.0,2.2,66,0.00,,---,0.00,VWS V14.00,2013-08-13 14:36:00,
2013-08-13 10:41:00,59.7,47.5,30.06,NNW,338,2.5,2.7,64,0.00,,---,0.00,VWS V14.00,2013-08-13 14:41:00,
2013-08-13 10:46:00,59.7,47.1,30.06,SW,225,1.3,3.4,63,0.00,,---,0.00,VWS V14.00,2013-08-13 14:46:00,
2013-08-13 10:51:00,59.7,47.5,30.06,NW,315,2.5,4.3,64,0.00,,---,0.00,VWS V14.00,2013-08-13 14:51:00,
2013-08-13 10:56:00,59.9,46.9,30.06,North,0,3.6,4.0,62,0.00,,---,0.00,VWS V14.00,2013-08-13 14:56:00,
2013-08-13 11:01:00,60.4,48.6,30.03,North,0,2.7,2.7,65,0.00,,---,0.00,VWS V14.00,2013-08-13 15:01:00,
2013-08-13 11:07:00,60.6,47.5,30.03,WSW,248,2.7,2.7,62,0.00,,---,0.00,VWS V14.00,2013-08-13 15:07:00,
2013-08-13 11:12:00,60.4,47.4,30.03,WNW,292,1.3,1.3,62,0.00,,---,0.00,VWS V14.00,2013-08-13 15:12:00,
2013-08-13 11:17:00,60.4,47.4,30.09,South,180,2.5,2.5,62,0.00,,---,0.00,VWS V14.00,2013-08-13 15:17:00,
2013-08-13 11:22:00,61.2,48.5,30.09,WSW,248,0.0,0.9,63,0.00,,---,0.00,VWS V14.00,2013-08-13 15:22:00,
2013-08-13 11:27:00,61.7,48.1,30.09,North,0,2.0,2.0,61,0.00,,---,0.00,VWS V14.00,2013-08-13 15:27:00,
2013-08-13 11:32:00,61.9,48.7,30.06,West,270,1.6,1.6,62,0.00,,---,0.00,VWS V14.00,2013-08-13 15:32:00,
2013-08-13 11:37:00,61.9,47.0,30.06,North,0,2.7,2.7,58,0.00,,---,0.00,VWS V14.00,2013-08-13 15:37:00,
2013-08-13 11:42:00,62.1,47.6,30.06,North,0,0.9,2.7,59,0.00,,---,0.00,VWS V14.00,2013-08-13 15:42:00,
2013-08-13 11:47:00,62.4,47.0,30.09,North,0,2.7,2.7,57,0.00,,---,0.00,VWS V14.00,2013-08-13 15:47:00,
2013-08-13 11:52:00,62.6,47.6,30.09,NE,45,3.1,3.6,58,0.00,,---,0.00,VWS V14.00,2013-08-13 15:52:00,
2013-08-13 11:57:00,63.1,48.1,30.09,NE,45,2.2,3.4,58,0.00,,---,0.00,VWS V14.00,2013-08-13 15:57:00,
2013-08-13 12:02:00,63.3,47.4,30.09,NNE,22,1.1,2.7,56,0.00,,---,0.00,VWS V14.00,2013-08-13 16:02:00,
2013-08-13 12:07:00,63.7,46.7,30.09,WSW,248,1.6,2.0,54,0.00,,---,0.00,VWS V14.00,2013-08-13 16:07:00,
2013-08-13 12:12:00,63.5,47.1,30.09,North,0,2.7,3.4,55,0.00,,---,0.00,VWS V14.00,2013-08-13 16:12:00,
2013-08-13 12:17:00,63.1,46.2,30.06,NNE,22,1.3,2.0,54,0.00,,---,0.00,VWS V14.00,2013-08-13 16:17:00,
2013-08-13 12:22:00,63.5,46.6,30.06,WSW,248,1.1,1.3,54,0.00,,---,0.00,VWS V14.00,2013-08-13 16:22:00,
2013-08-13 12:27:00,63.9,47.4,30.06,North,0,2.9,3.4,55,0.00,,---,0.00,VWS V14.00,2013-08-13 16:27:00,
2013-08-13 12:32:00,64.4,46.9,30.06,NNW,338,3.1,3.4,53,0.00,,---,0.00,VWS V14.00,2013-08-13 16:32:00,
2013-08-13 12:37:00,64.8,47.2,30.06,North,0,2.2,2.2,53,0.00,,---,0.00,VWS V14.00,2013-08-13 16:37:00,
2013-08-13 12:42:00,64.0,46.1,30.06,NNW,338,2.7,2.7,52,0.00,,---,0.00,VWS V14.00,2013-08-13 16:42:00,
2013-08-13 12:47:00,64.0,46.1,30.09,SW,225,2.5,4.7,52,0.00,,---,0.00,VWS V14.00,2013-08-13 16:47:00,
2013-08-13 12:52:00,64.6,46.6,30.09,West,270,2.7,2.7,52,0.00,,---,0.00,VWS V14.00,2013-08-13 16:52:00,
2013-08-13 12:57:00,64.6,47.6,30.09,WSW,248,3.4,5.4,54,0.00,,---,0.00,VWS V14.00,2013-08-13 16:57:00,
2013-08-13 13:02:00,64.2,46.8,30.09,NNW,338,2.0,2.0,53,0.00,,---,0.00,VWS V14.00,2013-08-13 17:02:00,
2013-08-13 13:08:00,64.2,46.8,30.09,West,270,2.5,2.5,53,0.00,,---,0.00,VWS V14.00,2013-08-13 17:08:00,
2013-08-13 13:13:00,65.3,47.2,30.09,SW,225,2.0,3.4,52,0.00,,---,0.00,VWS V14.00,2013-08-13 17:13:00,
2013-08-13 13:18:00,64.9,46.9,30.06,West,270,1.3,1.3,52,0.00,,---,0.00,VWS V14.00,2013-08-13 17:18:00,
2013-08-13 13:23:00,64.2,46.2,30.06,NW,315,1.1,1.1,52,0.00,,---,0.00,VWS V14.00,2013-08-13 17:23:00,
2013-08-13 13:28:00,64.9,47.4,30.06,West,270,1.3,1.3,53,0.00,,---,0.00,VWS V14.00,2013-08-13 17:28:00,
2013-08-13 13:33:00,66.0,47.9,30.06,SSW,202,0.9,0.9,52,0.00,,---,0.00,VWS V14.00,2013-08-13 17:33:00,
2013-08-13 13:38:00,66.6,46.8,30.06,North,0,2.0,2.0,49,0.00,,---,0.00,VWS V14.00,2013-08-13 17:38:00,
2013-08-13 13:43:00,65.3,45.7,30.06,North,0,2.0,2.0,49,0.00,,---,0.00,VWS V14.00,2013-08-13 17:43:00,
2013-08-13 13:48:00,64.9,45.9,30.06,NNW,338,1.6,1.6,50,0.00,,---,0.00,VWS V14.00,2013-08-13 17:48:00,
2013-08-13 13:53:00,65.7,46.0,30.06,WSW,248,1.1,1.1,49,0.00,,---,0.00,VWS V14.00,2013-08-13 17:53:00,
2013-08-13 13:58:00,65.8,46.7,30.06,WNW,292,0.0,1.1,50,0.00,,---,0.00,VWS V14.00,2013-08-13 17:58:00,
2013-08-13 14:03:00,66.6,48.4,30.09,WSW,248,3.6,3.6,52,0.00,,---,0.00,VWS V14.00,2013-08-13 18:03:00,
2013-08-13 14:08:00,66.7,47.5,30.09,WNW,292,0.0,2.0,50,0.00,,---,0.00,VWS V14.00,2013-08-13 18:08:00,
2013-08-13 14:13:00,66.4,45.6,30.09,NNE,22,0.9,1.6,47,0.00,,---,0.00,VWS V14.00,2013-08-13 18:13:00,
2013-08-13 14:18:00,66.2,46.5,30.09,WSW,248,0.0,0.0,49,0.00,,---,0.00,VWS V14.00,2013-08-13 18:18:00,
2013-08-13 14:23:00,66.2,47.0,30.09,WSW,248,0.9,1.6,50,0.00,,---,0.00,VWS V14.00,2013-08-13 18:23:00,
2013-08-13 14:28:00,66.2,46.5,30.09,WSW,248,0.0,2.0,49,0.00,,---,0.00,VWS V14.00,2013-08-13 18:28:00,
2013-08-13 14:33:00,66.2,47.6,30.09,NW,315,1.3,2.0,51,0.00,,---,0.00,VWS V14.00,2013-08-13 18:33:00,
2013-08-13 14:38:00,66.4,46.7,30.09,WSW,248,0.0,1.3,49,0.00,,---,0.00,VWS V14.00,2013-08-13 18:38:00,
2013-08-13 14:43:00,66.7,47.0,30.09,WSW,248,1.3,2.9,49,0.00,,---,0.00,VWS V14.00,2013-08-13 18:43:00,
2013-08-13 14:48:00,66.6,45.2,30.09,NNE,22,2.5,2.5,46,0.00,,---,0.00,VWS V14.00,2013-08-13 18:48:00,
2013-08-13 14:53:00,66.4,45.0,30.09,NNW,338,1.3,2.2,46,0.00,,---,0.00,VWS V14.00,2013-08-13 18:53:00,
2013-08-13 14:58:00,65.8,44.5,30.09,West,270,2.7,3.8,46,0.00,,---,0.00,VWS V14.00,2013-08-13 18:58:00,
2013-08-13 15:03:00,66.7,47.0,30.09,West,270,0.9,3.6,49,0.00,,---,0.00,VWS V14.00,2013-08-13 19:03:00,
2013-08-13 15:08:00,67.5,46.0,30.09,NW,315,0.9,1.3,46,0.00,,---,0.00,VWS V14.00,2013-08-13 19:08:00,
2013-08-13 15:13:00,66.7,45.3,30.09,North,0,3.4,3.4,46,0.00,,---,0.00,VWS V14.00,2013-08-13 19:13:00,
2013-08-13 15:18:00,66.7,47.0,30.06,WSW,248,1.6,3.6,49,0.00,,---,0.00,VWS V14.00,2013-08-13 19:18:00,
2013-08-13 15:23:00,66.6,45.2,30.06,NNW,338,1.3,2.5,46,0.00,,---,0.00,VWS V14.00,2013-08-13 19:23:00,
2013-08-13 15:28:00,67.1,46.2,30.06,WSW,248,0.9,2.0,47,0.00,,---,0.00,VWS V14.00,2013-08-13 19:28:00,
2013-08-13 15:33:00,67.8,47.4,30.06,WSW,248,3.4,3.6,48,0.00,,---,0.00,VWS V14.00,2013-08-13 19:33:00,
2013-08-13 15:39:00,68.2,46.6,30.06,West,270,1.3,1.3,46,0.00,,---,0.00,VWS V14.00,2013-08-13 19:39:00,
2013-08-13 15:44:00,68.2,45.5,30.06,NW,315,2.5,2.5,44,0.00,,---,0.00,VWS V14.00,2013-08-13 19:44:00,
2013-08-13 15:49:00,67.8,45.1,30.06,NW,315,2.5,2.5,44,0.00,,---,0.00,VWS V14.00,2013-08-13 19:49:00,
2013-08-13 15:54:00,68.5,46.4,30.06,NNW,338,2.0,2.0,45,0.00,,---,0.00,VWS V14.00,2013-08-13 19:54:00,
2013-08-13 15:59:00,68.4,46.2,30.06,NW,315,3.6,3.6,45,0.00,,---,0.00,VWS V14.00,2013-08-13 19:59:00,
2013-08-13 16:04:00,68.0,45.9,30.06,NE,45,0.9,0.9,45,0.00,,---,0.00,VWS V14.00,2013-08-13 20:04:00,
2013-08-13 16:09:00,67.6,45.6,30.06,West,270,2.2,2.5,45,0.00,,---,0.00,VWS V14.00,2013-08-13 20:09:00,
2013-08-13 16:14:00,67.3,45.2,30.06,WSW,248,3.1,3.1,45,0.00,,---,0.00,VWS V14.00,2013-08-13 20:14:00,
2013-08-13 16:19:00,66.9,44.9,30.03,WNW,292,1.3,2.0,45,0.00,,---,0.00,VWS V14.00,2013-08-13 20:19:00,
2013-08-13 16:24:00,66.9,46.0,30.03,West,270,2.5,4.9,47,0.00,,---,0.00,VWS V14.00,2013-08-13 20:24:00,
2013-08-13 16:29:00,67.1,46.2,30.03,SW,225,1.1,2.9,47,0.00,,---,0.00,VWS V14.00,2013-08-13 20:29:00,
2013-08-13 16:34:00,67.3,46.4,30.06,WNW,292,1.6,2.9,47,0.00,,---,0.00,VWS V14.00,2013-08-13 20:34:00,
2013-08-13 16:39:00,67.5,46.0,30.06,NW,315,2.0,6.0,46,0.00,,---,0.00,VWS V14.00,2013-08-13 20:39:00,
2013-08-13 16:44:00,67.3,45.8,30.06,SW,225,0.0,2.0,46,0.00,,---,0.00,VWS V14.00,2013-08-13 20:44:00,
2013-08-13 16:49:00,67.3,46.9,30.06,WNW,292,0.0,3.6,48,0.00,,---,0.00,VWS V14.00,2013-08-13 20:49:00,
2013-08-13 16:54:00,67.5,47.7,30.06,WNW,292,2.5,2.9,49,0.00,,---,0.00,VWS V14.00,2013-08-13 20:54:00,
2013-08-13 16:59:00,67.1,47.3,30.06,North,0,2.9,3.4,49,0.00,,---,0.00,VWS V14.00,2013-08-13 20:59:00,
2013-08-13 17:04:00,66.9,48.2,30.06,WSW,248,1.1,1.1,51,0.00,,---,0.00,VWS V14.00,2013-08-13 21:04:00,
2013-08-13 17:10:00,66.2,47.0,30.06,North,0,1.1,1.1,50,0.00,,---,0.00,VWS V14.00,2013-08-13 21:10:00,
2013-08-13 17:15:00,65.7,47.1,30.06,SW,225,2.5,2.5,51,0.00,,---,0.00,VWS V14.00,2013-08-13 21:15:00,
2013-08-13 17:20:00,65.3,47.2,30.06,WSW,248,0.0,0.0,52,0.00,,---,0.00,VWS V14.00,2013-08-13 21:20:00,
2013-08-13 17:25:00,65.5,48.4,30.06,West,270,0.0,0.0,54,0.00,,---,0.00,VWS V14.00,2013-08-13 21:25:00,
2013-08-13 17:30:00,65.7,49.1,30.06,SW,225,1.3,1.6,55,0.00,,---,0.00,VWS V14.00,2013-08-13 21:30:00,
2013-08-13 17:35:00,66.0,49.4,30.03,WSW,248,2.0,2.0,55,0.00,,---,0.00,VWS V14.00,2013-08-13 21:35:00,
2013-08-13 17:40:00,66.0,49.4,30.03,NW,315,2.5,2.5,55,0.00,,---,0.00,VWS V14.00,2013-08-13 21:40:00,
2013-08-13 17:45:00,65.8,48.2,30.03,SSW,202,0.0,1.3,53,0.00,,---,0.00,VWS V14.00,2013-08-13 21:45:00,
2013-08-13 17:50:00,65.5,47.9,30.03,West,270,2.0,2.2,53,0.00,,---,0.00,VWS V14.00,2013-08-13 21:50:00,
2013-08-13 17:55:00,65.3,47.8,30.03,West,270,1.6,2.7,53,0.00,,---,0.00,VWS V14.00,2013-08-13 21:55:00,
2013-08-13 18:00:00,65.3,48.7,30.06,WNW,292,2.5,2.5,55,0.00,,---,0.00,VWS V14.00,2013-08-13 22:00:00,
2013-08-13 18:05:00,65.5,49.4,30.06,West,270,0.0,1.3,56,0.00,,---,0.00,VWS V14.00,2013-08-13 22:05:00,
2013-08-13 18:10:00,64.9,48.9,30.06,North,0,0.0,2.0,56,0.00,,---,0.00,VWS V14.00,2013-08-13 22:10:00,
2013-08-13 18:15:00,64.9,49.4,30.06,WSW,248,2.7,3.4,57,0.00,,---,0.00,VWS V14.00,2013-08-13 22:15:00,
2013-08-13 18:20:00,64.8,49.2,30.06,WSW,248,1.6,1.6,57,0.00,,---,0.00,VWS V14.00,2013-08-13 22:20:00,
2013-08-13 18:25:00,64.6,48.5,30.06,SSW,202,1.6,2.5,56,0.00,,---,0.00,VWS V14.00,2013-08-13 22:25:00,
2013-08-13 18:31:00,64.4,48.4,30.06,West,270,1.6,1.6,56,0.00,,---,0.00,VWS V14.00,2013-08-13 22:31:00,
2013-08-13 18:36:00,64.2,48.7,30.06,WNW,292,1.1,1.3,57,0.00,,---,0.00,VWS V14.00,2013-08-13 22:36:00,
2013-08-13 18:41:00,64.4,48.8,30.06,West,270,2.5,2.5,57,0.00,,---,0.00,VWS V14.00,2013-08-13 22:41:00,
2013-08-13 18:46:00,64.6,49.5,30.06,West,270,0.0,1.1,58,0.00,,---,0.00,VWS V14.00,2013-08-13 22:46:00,
2013-08-13 18:51:00,64.9,50.3,30.06,West,270,1.6,3.6,59,0.00,,---,0.00,VWS V14.00,2013-08-13 22:51:00,
2013-08-13 18:56:00,64.8,49.7,30.06,North,0,2.9,2.9,58,0.00,,---,0.00,VWS V14.00,2013-08-13 22:56:00,
2013-08-13 19:01:00,64.6,49.0,30.06,West,270,2.0,2.0,57,0.00,,---,0.00,VWS V14.00,2013-08-13 23:01:00,
2013-08-13 19:06:00,64.6,48.5,30.06,NW,315,0.0,0.0,56,0.00,,---,0.00,VWS V14.00,2013-08-13 23:06:00,
2013-08-13 19:11:00,64.4,48.8,30.06,West,270,2.0,3.1,57,0.00,,---,0.00,VWS V14.00,2013-08-13 23:11:00,
2013-08-13 19:16:00,64.2,48.7,30.06,NW,315,1.6,1.6,57,0.00,,---,0.00,VWS V14.00,2013-08-13 23:16:00,
2013-08-13 19:21:00,63.9,47.9,30.06,WNW,292,0.0,2.5,56,0.00,,---,0.00,VWS V14.00,2013-08-13 23:21:00,
2013-08-13 19:26:00,63.7,47.7,30.06,WSW,248,1.6,1.6,56,0.00,,---,0.00,VWS V14.00,2013-08-13 23:26:00,
2013-08-13 19:31:00,63.5,47.1,30.06,WSW,248,1.6,2.9,55,0.00,,---,0.00,VWS V14.00,2013-08-13 23:31:00,
2013-08-13 19:36:00,63.3,45.9,30.06,West,270,1.1,2.7,53,0.00,,---,0.00,VWS V14.00,2013-08-13 23:36:00,
2013-08-13 19:41:00,63.1,46.2,30.06,West,270,0.9,1.6,54,0.00,,---,0.00,VWS V14.00,2013-08-13 23:41:00,
2013-08-13 19:46:00,63.0,46.1,30.06,West,270,1.6,1.6,54,0.00,,---,0.00,VWS V14.00,2013-08-13 23:46:00,
2013-08-13 19:52:00,62.8,46.4,30.06,WNW,292,1.1,2.2,55,0.00,,---,0.00,VWS V14.00,2013-08-13 23:52:00,
2013-08-13 19:57:00,62.6,46.7,30.06,West,270,1.3,1.6,56,0.00,,---,0.00,VWS V14.00,2013-08-13 23:57:00,
2013-08-13 20:02:00,62.2,46.8,30.09,SSE,158,1.1,2.0,57,0.00,,---,0.00,VWS V14.00,2013-08-14 00:02:00,
2013-08-13 20:07:00,62.1,47.1,30.09,North,0,2.0,2.7,58,0.00,,---,0.00,VWS V14.00,2013-08-14 00:07:00,
2013-08-13 20:12:00,61.9,47.4,30.09,West,270,0.9,1.3,59,0.00,,---,0.00,VWS V14.00,2013-08-14 00:12:00,
2013-08-13 20:17:00,61.7,47.7,30.09,West,270,0.0,2.2,60,0.00,,---,0.00,VWS V14.00,2013-08-14 00:17:00,
2013-08-13 20:22:00,61.3,47.8,30.09,ENE,68,1.6,2.2,61,0.00,,---,0.00,VWS V14.00,2013-08-14 00:22:00,
2013-08-13 20:27:00,61.2,47.6,30.09,West,270,0.0,1.6,61,0.00,,---,0.00,VWS V14.00,2013-08-14 00:27:00,
2013-08-13 20:32:00,61.0,47.9,30.09,West,270,1.1,2.9,62,0.00,,---,0.00,VWS V14.00,2013-08-14 00:32:00,
2013-08-13 20:37:00,60.8,47.7,30.09,WSW,248,1.3,1.3,62,0.00,,---,0.00,VWS V14.00,2013-08-14 00:37:00,
2013-08-13 20:42:00,60.6,48.0,30.09,West,270,1.6,2.0,63,0.00,,---,0.00,VWS V14.00,2013-08-14 00:42:00,
2013-08-13 20:47:00,60.4,47.8,30.09,West,270,1.6,1.6,63,0.00,,---,0.00,VWS V14.00,2013-08-14 00:47:00,
2013-08-13 20:48:00,60.4,47.8,30.09,West,270,0.9,1.6,63,0.00,,---,0.00,VWS V14.00,2013-08-14 00:48:00,
2013-08-13 20:53:00,60.1,47.9,30.09,WSW,248,0.0,0.0,64,0.00,,---,0.00,VWS V14.00,2013-08-14 00:53:00,
2013-08-13 20:58:00,59.9,47.7,30.09,West,270,1.1,2.7,64,0.00,,---,0.00,VWS V14.00,2013-08-14 00:58:00,
2013-08-13 21:03:00,59.7,48.0,30.09,West,270,0.0,0.0,65,0.00,,---,0.00,VWS V14.00,2013-08-14 01:03:00,
2013-08-13 21:08:00,59.5,47.8,30.09,West,270,0.0,0.0,65,0.00,,---,0.00,VWS V14.00,2013-08-14 01:08:00,
2013-08-13 21:13:00,59.4,48.0,30.09,West,270,1.1,1.3,66,0.00,,---,0.00,VWS V14.00,2013-08-14 01:13:00,
2013-08-13 21:19:00,59.2,48.2,30.12,West,270,0.0,0.0,67,0.00,,---,0.00,VWS V14.00,2013-08-14 01:19:00,
2013-08-13 21:24:00,59.0,48.1,30.12,West,270,0.0,0.0,67,0.00,,---,0.00,VWS V14.00,2013-08-14 01:24:00,
2013-08-13 21:29:00,58.8,48.3,30.12,West,270,0.0,0.0,68,0.00,,---,0.00,VWS V14.00,2013-08-14 01:29:00,
2013-08-13 21:34:00,58.8,48.3,30.12,WSW,248,0.0,0.9,68,0.00,,---,0.00,VWS V14.00,2013-08-14 01:34:00,
2013-08-13 21:39:00,58.6,48.5,30.12,WNW,292,0.0,0.0,69,0.00,,---,0.00,VWS V14.00,2013-08-14 01:39:00,
2013-08-13 21:44:00,58.5,48.3,30.12,West,270,1.1,1.1,69,0.00,,---,0.00,VWS V14.00,2013-08-14 01:44:00,
2013-08-13 21:49:00,58.3,48.5,30.12,West,270,0.0,0.0,70,0.00,,---,0.00,VWS V14.00,2013-08-14 01:49:00,
2013-08-13 21:54:00,58.1,48.4,30.12,West,270,0.0,0.9,70,0.00,,---,0.00,VWS V14.00,2013-08-14 01:54:00,
2013-08-13 21:59:00,58.1,48.4,30.12,WNW,292,0.0,0.0,70,0.00,,---,0.00,VWS V14.00,2013-08-14 01:59:00,
2013-08-13 22:04:00,57.9,48.6,30.12,WNW,292,0.0,0.0,71,0.00,,---,0.00,VWS V14.00,2013-08-14 02:04:00,
2013-08-13 22:09:00,57.9,48.6,30.12,WNW,292,0.9,0.9,71,0.00,,---,0.00,VWS V14.00,2013-08-14 02:09:00,
2013-08-13 22:14:00,57.7,48.4,30.12,WSW,248,0.0,0.0,71,0.00,,---,0.00,VWS V14.00,2013-08-14 02:14:00,
2013-08-13 22:19:00,57.6,48.2,30.12,WSW,248,0.0,0.0,71,0.00,,---,0.00,VWS V14.00,2013-08-14 02:19:00,
2013-08-13 22:24:00,57.6,48.2,30.12,WSW,248,0.0,0.0,71,0.00,,---,0.00,VWS V14.00,2013-08-14 02:24:00,
2013-08-13 22:29:00,57.4,48.1,30.12,WSW,248,0.0,0.0,71,0.00,,---,0.00,VWS V14.00,2013-08-14 02:29:00,
2013-08-13 22:34:00,57.2,47.9,30.15,West,270,0.0,0.9,71,0.00,,---,0.00,VWS V14.00,2013-08-14 02:34:00,
2013-08-13 22:39:00,57.0,48.1,30.15,West,270,0.0,0.0,72,0.00,,---,0.00,VWS V14.00,2013-08-14 02:39:00,
2013-08-13 22:44:00,56.8,47.9,30.15,SSW,202,0.0,0.9,72,0.00,,---,0.00,VWS V14.00,2013-08-14 02:44:00,
2013-08-13 22:50:00,56.8,47.9,30.15,West,270,0.0,0.0,72,0.00,,---,0.00,VWS V14.00,2013-08-14 02:50:00,
2013-08-13 22:55:00,56.7,47.8,30.15,West,270,1.1,1.1,72,0.00,,---,0.00,VWS V14.00,2013-08-14 02:55:00,
2013-08-13 23:00:00,56.7,47.8,30.15,West,270,0.0,0.0,72,0.00,,---,0.00,VWS V14.00,2013-08-14 03:00:00,
2013-08-13 23:05:00,56.7,47.8,30.15,WNW,292,1.1,1.1,72,0.00,,---,0.00,VWS V14.00,2013-08-14 03:05:00,
2013-08-13 23:10:00,56.5,47.6,30.15,SSW,202,0.0,1.6,72,0.00,,---,0.00,VWS V14.00,2013-08-14 03:10:00,
2013-08-13 23:15:00,56.3,47.4,30.15,NW,315,1.3,1.6,72,0.00,,---,0.00,VWS V14.00,2013-08-14 03:15:00,
2013-08-13 23:20:00,56.3,47.4,30.15,West,270,0.0,0.0,72,0.00,,---,0.00,VWS V14.00,2013-08-14 03:20:00,
2013-08-13 23:25:00,56.3,47.0,30.15,SW,225,0.0,1.3,71,0.00,,---,0.00,VWS V14.00,2013-08-14 03:25:00,
2013-08-13 23:30:00,56.3,47.0,30.15,WSW,248,1.1,1.1,71,0.00,,---,0.00,VWS V14.00,2013-08-14 03:30:00,
2013-08-13 23:35:00,56.1,46.9,30.15,West,270,0.0,1.1,71,0.00,,---,0.00,VWS V14.00,2013-08-14 03:35:00,
2013-08-13 23:40:00,56.1,46.9,30.15,NW,315,2.5,3.1,71,0.00,,---,0.00,VWS V14.00,2013-08-14 03:40:00,
2013-08-13 23:46:00,55.9,46.7,30.18,NW,315,1.6,1.6,71,0.00,,---,0.00,VWS V14.00,2013-08-14 03:46:00,
2013-08-13 23:51:00,55.9,46.3,30.18,West,270,0.0,0.9,70,0.00,,---,0.00,VWS V14.00,2013-08-14 03:51:00,
2013-08-13 23:56:00,55.9,46.7,30.18,South,180,0.0,0.0,71,0.00,,---,0.00,VWS V14.00,2013-08-14 03:56:00,